Location: Newark
(48.5156°N, 1.8989°W)
Time: 10:58:30
(UTC+00:00)

Courier 1B - Pass Details

Date: 23 November 2019
Orbit: 963 x 1209 km, 28.3° (Epoch: 15 December)

Event Time Altitude Azimuth Distance (km) Brightness Sun altitude
Exits shadow 04:32:31 - 193° (SSW) 3,143 10.0 -28.4°
Reaches altitude 10° 04:34:42 10° 177° (S) 2,898 10.0 -28.0°
Maximum altitude 04:35:48 10° 167° (SSE) 2,854 10.0 -27.8°
Drops below altitude 10° 04:36:55 10° 158° (SSE) 2,869 10.2 -27.7°
Sets 04:42:38 0° 120° (ESE) 3,750 11.5 -26.7°
